Location: Slemon Park
(46.4340°N, 63.8219°W)
Time: 11:01:35
(UTC-04:00)

ISS - All Passes

Search period start: 19 January 2017 00:00
Search period end: 29 January 2017 00:00
Orbit: 399 x 410 km, 51.6° (Epoch: 20 January)

Date Brightness Start Highest point End Pass type
(mag) Time Alt. Az. Time Alt. Az. Time Alt. Az.
19 Jan - 00:30:37 10° WSW 00:33:51 62° NNW 00:37:05 10° ENE night (unlit)
19 Jan - 02:07:45 10° WNW 02:10:43 31° N 02:13:40 10° ENE night (unlit)
19 Jan - 03:44:30 10° WNW 03:47:39 46° NNE 03:50:49 10° E night (unlit)
19 Jan - 05:21:03 10° WNW 05:24:07 38° SW 05:27:10 10° SSE visible
19 Jan - 22:03:42 10° S 22:05:35 15° SE 22:07:28 10° E night (unlit)
19 Jan - 23:38:23 10° WSW 23:41:38 86° SSE 23:44:54 10° ENE night (unlit)
20 Jan - 01:15:22 10° WNW 01:18:22 34° N 01:21:23 10° ENE night (unlit)
20 Jan - 02:52:17 10° WNW 02:55:21 37° NNE 02:58:24 10° E night (unlit)
20 Jan - 04:28:46 10° WNW 04:32:00 66° SSW 04:35:13 10° SE visible
20 Jan - 06:07:07 10° WSW 06:07:55 11° SW 06:08:44 10° SSW visible
20 Jan - 22:46:19 10° SW 22:49:28 51° SSE 22:52:39 10° ENE night (unlit)
21 Jan - 00:22:55 10° W 00:26:02 40° NNW 00:29:09 10° ENE night (unlit)
21 Jan - 02:00:01 10° WNW 02:03:00 32° N 02:05:59 10° ENE night (unlit)
21 Jan - 03:36:32 10° WNW 03:39:48 77° NNE 03:43:03 10° ESE night (unlit)
21 Jan - 05:13:36 10° W 05:15:58 19° SW 05:18:19 10° S visible
21 Jan - 21:54:29 10° SSW 21:57:22 30° SE 22:00:16 10° ENE night (unlit)
21 Jan - 23:30:31 10° W 23:33:44 54° NNW 23:36:56 10° ENE night (unlit)
22 Jan - 01:07:40 10° WNW 01:10:38 31° N 01:13:35 10° ENE night (unlit)
22 Jan - 02:44:20 10° WNW 02:47:32 52° NNE 02:50:44 10° E night (unlit)
22 Jan - 04:20:58 10° WNW 04:23:55 31° SW 04:26:50 10° SSE night (unlit)
22 Jan - 21:03:03 10° S 21:05:19 18° SE 21:07:36 10° E night (unlit)
22 Jan - 22:38:11 10° WSW 22:41:27 81° NNW 22:44:43 10° ENE night (unlit)
23 Jan - 00:15:15 10° WNW 00:18:14 32° N 00:21:14 10° ENE night (unlit)
23 Jan - 01:52:07 10° WNW 01:55:12 39° NNE 01:58:18 10° E night (unlit)
23 Jan - 03:28:35 10° WNW 03:31:47 54° SSW 03:34:58 10° SE night (unlit)
23 Jan - 20:13:13 10° SE 20:13:20 10° SE 20:13:26 10° SE night (unlit)
23 Jan - 21:46:00 10° SW 21:49:14 62° SSE 21:52:28 10° ENE night (unlit)
23 Jan - 23:22:46 10° W 23:25:51 37° NNW 23:28:56 10° ENE night (unlit)
24 Jan - 00:59:49 10° WNW 01:02:50 33° N 01:05:50 10° ENE night (unlit)
24 Jan - 02:36:19 10° WNW 02:39:34 90° NNE 02:42:49 10° ESE night (unlit)
24 Jan - 04:13:38 10° W 04:15:39 15° SW 04:17:39 10° S night (unlit)
24 Jan - 20:54:02 10° SSW 20:57:03 36° SE 21:00:05 10° ENE night (unlit)
24 Jan - 22:30:19 10° W 22:33:30 48° NNW 22:36:40 10° ENE night (unlit)
25 Jan - 00:07:27 10° WNW 00:10:25 31° N 00:13:22 10° ENE night (unlit)
25 Jan - 01:44:04 10° WNW 01:47:17 59° NNE 01:50:30 10° ESE night (unlit)
25 Jan - 03:20:49 10° W 03:23:35 26° SW 03:26:21 10° SSE night (unlit)
25 Jan - 20:02:23 10° S 20:04:57 21° SE 20:07:30 10° E night (unlit)
25 Jan - 21:37:55 10° WSW 21:41:10 70° NNW 21:44:25 10° ENE night (unlit)
25 Jan - 23:15:01 10° WNW 23:17:59 31° N 23:20:58 10° ENE night (unlit)
26 Jan - 00:51:48 10° WNW 00:54:56 43° NNE 00:58:04 10° E night (unlit)
26 Jan - 02:28:19 10° WNW 02:31:27 45° SW 02:34:34 10° SE night (unlit)
26 Jan - 19:11:26 10° SSE 19:12:54 12° SE 19:14:20 10° ESE visible
26 Jan - 20:45:37 10° SW 20:48:53 75° SSE 20:52:08 10° ENE night (unlit)
26 Jan - 22:22:30 10° W 22:25:33 35° N 22:28:36 10° ENE night (unlit)
26 Jan - 23:59:30 10° WNW 00:02:32 35° N 00:05:34 10° ENE night (unlit)
27 Jan - 01:35:58 10° WNW 01:39:14 77° SSW 01:42:28 10° ESE night (unlit)
27 Jan - 03:13:42 10° WSW 03:15:13 13° SW 03:16:43 10° SSW night (unlit)
27 Jan - 19:53:31 10° SW 19:56:39 44° SE 19:59:46 10° ENE visible
27 Jan - 21:30:00 10° W 21:33:09 43° NNW 21:36:18 10° ENE night (unlit)
27 Jan - 23:07:07 10° WNW 23:10:06 31° N 23:13:04 10° ENE night (unlit)
28 Jan - 00:43:40 10° WNW 00:46:56 68° NNE 00:50:09 10° ESE night (unlit)
28 Jan - 02:20:34 10° W 02:23:09 22° SW 02:25:42 10° S night (unlit)
28 Jan - 19:01:42 10° SSW 19:04:28 26° SE 19:07:15 10° E visible
28 Jan - 20:37:31 10° WSW 20:40:45 61° NNW 20:44:00 10° ENE visible
28 Jan - 22:14:39 10° WNW 22:17:37 31° N 22:20:35 10° ENE night (unlit)
28 Jan - 23:51:22 10° WNW 23:54:33 47° NNE 23:57:42 10° E night (unlit)
